Location: Unspecified
(42.3650°N, 71.1030°W)
Time: 16:40:06
(UTC+00:00)

S-56A Canister/Altair - Pass Details

Date: 30 June 2024
Orbit: 638 x 2487 km, 38.9° (Epoch: 20 July)

Event Time Altitude Azimuth Distance (km) Brightness Sun altitude
Rises 05:30:04 0° 281° (W) 4,838 11.6 -23.8°
Reaches altitude 10° 05:33:19 10° 272° (W) 4,098 11.1 -23.7°
Maximum altitude 05:43:05 34° 214° (SW) 3,172 10.1 -23.3°
Enters shadow 05:45:14 32° 198° (SSW) 3,328 10.1 -23.2°
